DW4915 Mazarete ES current weather conditions

sailwx.info

Wind from 257

Air temperature 19.4° C
Dewpoint 9.0° C

Last reported at 2016-Sep-29 10:51 UTC.
Time now 2016-Sep-29 11:51 UTC

Location: N 40°58' W 002°11'.
View on Google Maps.

See reports from other nearby stations

  
Tides and Currents Weather Stations Pressure Air Temp Water Temp Dewpoint Dewpoint Depression Visibility Wind Speed Wind Dir Waves Ship Positions
date/time (UTC)wind fromknots sea level pressurealtimeterstation pressurevisibilityair tempwater tempwave heightnotes
2016-Sep-29 10:51 257 19.4
2016-Sep-29 10:46 260 19.4
2016-Sep-29 10:41 221 18.9
2016-Sep-29 10:36 231 18.9
2016-Sep-29 10:31 260 18.9
2016-Sep-29 10:26 240 18.3
2016-Sep-29 10:21 260 18.3
2016-Sep-29 10:16 251 18.3
2016-Sep-29 10:11 245 18.3
2016-Sep-29 10:06 236 18.3
2016-Sep-29 10:01 246 17.8
2016-Sep-29 09:56 245 17.8
2016-Sep-29 09:51 248 17.8
2016-Sep-29 09:46 246 17.2
2016-Sep-29 09:41 180 17.2
2016-Sep-29 09:36 177 17.2
2016-Sep-29 09:31 177 16.7
2016-Sep-29 09:26 174 16.7
2016-Sep-29 09:21 169 16.7
2016-Sep-29 09:16 167 16.7
2016-Sep-29 09:11 151 16.1
2016-Sep-29 09:06 099 16.1
2016-Sep-29 09:01 099 16.1
2016-Sep-29 08:56 099 16.1
2016-Sep-29 08:51 099 15.6
2016-Sep-29 08:46 099 15.6
2016-Sep-29 08:41 100 15.0
2016-Sep-29 08:36 099 14.4
2016-Sep-29 08:31 099 14.4
2016-Sep-29 08:26 099 13.9
2016-Sep-29 08:21 099 13.9
2016-Sep-29 08:16 099 13.3
2016-Sep-29 08:11 099 12.8
2016-Sep-29 08:06 100 12.2
2016-Sep-29 08:01 099 11.7
2016-Sep-29 07:56 099 11.7
2016-Sep-29 07:51 099 11.1
2016-Sep-29 07:46 099 10.6
2016-Sep-29 07:41 099 9.4
2016-Sep-29 07:36 099 8.3
2016-Sep-29 07:31 098 7.8
2016-Sep-29 07:26 099 7.2
2016-Sep-29 07:21 099 6.1
2016-Sep-29 07:16 099 5.6
2016-Sep-29 07:11 099 5.0
2016-Sep-29 07:06 099 4.4
2016-Sep-29 07:01 099 3.9
2016-Sep-29 06:56 099 3.3
2016-Sep-29 06:51 099 2.8
2016-Sep-29 06:46 099 2.2
2016-Sep-29 06:41 098 2.2
2016-Sep-29 06:36 099 2.2
2016-Sep-29 06:31 098 1.7
2016-Sep-29 06:26 099 1.7
2016-Sep-29 06:21 099 1.7
2016-Sep-29 06:16 100 1.7
2016-Sep-29 06:11 099 1.7
2016-Sep-29 06:06 099 1.7
2016-Sep-29 06:01 099 1.7
2016-Sep-29 05:56 099 1.7
2016-Sep-29 05:51 099 1.7
2016-Sep-29 05:46 099 1.7
2016-Sep-29 05:41 099 1.7
2016-Sep-29 05:36 098 1.7
2016-Sep-29 05:31 099 1.7
2016-Sep-29 05:26 099 2.2
2016-Sep-29 05:21 099 2.2
2016-Sep-29 05:16 099 2.2
2016-Sep-29 05:11 099 2.2
2016-Sep-29 05:06 100 2.2
2016-Sep-29 05:01 098 2.2
2016-Sep-29 04:56 099 2.2
2016-Sep-29 04:51 101 2.2
2016-Sep-29 04:46 100 2.2
2016-Sep-29 04:41 099 2.2
2016-Sep-29 04:36 099 2.2
2016-Sep-29 04:31 100 2.2
2016-Sep-29 04:26 099 2.2
2016-Sep-29 04:21 099 2.2
2016-Sep-29 04:16 099 2.2
2016-Sep-29 04:11 099 2.2
2016-Sep-29 04:06 099 2.2
2016-Sep-29 04:01 099 2.8
2016-Sep-29 03:56 099 2.8
2016-Sep-29 03:51 099 2.8
2016-Sep-29 03:46 099 2.8
2016-Sep-29 03:41 098 2.8
2016-Sep-29 03:36 099 2.8
2016-Sep-29 03:31 099 2.8
2016-Sep-29 03:26 099 2.8
2016-Sep-29 03:21 099 3.3
2016-Sep-29 03:16 099 3.3
2016-Sep-29 03:11 098 3.3
2016-Sep-29 03:06 099 3.3
2016-Sep-29 03:01 099 3.3
2016-Sep-29 02:56 100 3.3
2016-Sep-29 02:51 099 3.3
2016-Sep-29 02:46 100 3.3
2016-Sep-29 02:41 099 3.9
2016-Sep-29 02:36 099 3.9
2016-Sep-29 02:31 099 3.9
2016-Sep-29 02:26 098 3.9
2016-Sep-29 02:21 099 4.4
2016-Sep-29 02:16 099 4.4
2016-Sep-29 02:11 099 4.4
2016-Sep-29 02:06 100 4.4
2016-Sep-29 02:01 099 5.0
2016-Sep-29 01:56 099 5.0
2016-Sep-29 01:51 098 5.0
2016-Sep-29 01:46 099 5.0
2016-Sep-29 01:41 100 5.6
2016-Sep-29 01:36 099 5.6
2016-Sep-29 01:31 099 5.6
2016-Sep-29 01:26 099 5.6
2016-Sep-29 01:21 099 6.1
2016-Sep-29 01:16 099 6.1
2016-Sep-29 01:11 099 6.1
2016-Sep-29 01:06 099 6.1
2016-Sep-29 01:01 099 6.1
2016-Sep-29 00:56 100 6.1
2016-Sep-29 00:51 100 6.1
2016-Sep-29 00:46 099 6.1
2016-Sep-29 00:41 099 6.7
2016-Sep-29 00:36 099 6.7
2016-Sep-29 00:31 100 7.2
2016-Sep-29 00:26 099 7.2
2016-Sep-29 00:21 101 7.2
2016-Sep-29 00:16 099 7.8
2016-Sep-29 00:11 099 7.8
2016-Sep-29 00:06 099 8.3
2016-Sep-29 00:01 099 8.9
2016-Sep-28 23:56 099 8.9
2016-Sep-28 23:51 099 9.4
2016-Sep-28 23:46 099 10.0
2016-Sep-28 23:41 099 10.0
2016-Sep-28 23:36 099 10.0
2016-Sep-28 23:31 100 10.6
2016-Sep-28 23:26 099 10.0
2016-Sep-28 23:21 099 10.0
2016-Sep-28 23:16 098 10.0
2016-Sep-28 23:11 099 10.6
2016-Sep-28 23:06 099 10.6
2016-Sep-28 23:01 099 11.1
2016-Sep-28 22:56 099 11.1
2016-Sep-28 22:51 099 11.1
2016-Sep-28 22:46 099 11.1
2016-Sep-28 22:41 099 11.1
2016-Sep-28 22:36 098 10.6
2016-Sep-28 22:31 100 10.6
2016-Sep-28 22:26 099 10.6
2016-Sep-28 22:21 099 10.6
2016-Sep-28 22:16 099 10.6
2016-Sep-28 22:11 099 11.1
2016-Sep-28 22:06 099 11.1
2016-Sep-28 22:01 100 11.1
2016-Sep-28 21:56 099 11.1
2016-Sep-28 21:51 099 11.1
2016-Sep-28 21:46 099 11.1
2016-Sep-28 21:41 099 11.7
2016-Sep-28 21:31 099 11.7
2016-Sep-28 21:26 099 11.7
2016-Sep-28 21:21 099 11.7
2016-Sep-28 21:16 099 12.2
2016-Sep-28 21:06 099 13.3
2016-Sep-28 21:01 099 13.3
2016-Sep-28 20:56 099 13.9
2016-Sep-28 20:51 098 13.9
2016-Sep-28 20:46 088 13.9
2016-Sep-28 20:41 088 13.9
2016-Sep-28 20:36 088 13.9
2016-Sep-28 20:31 088 13.9
2016-Sep-28 20:26 088 13.9
2016-Sep-28 20:21 090 13.9
2016-Sep-28 20:16 090 14.4
2016-Sep-28 20:11 092 14.4
2016-Sep-28 20:06 097 15.0
2016-Sep-28 20:01 096 15.0
2016-Sep-28 19:56 097 15.0
2016-Sep-28 19:46 097 15.0
2016-Sep-28 19:41 096 15.0
2016-Sep-28 19:36 097 15.0
2016-Sep-28 19:31 098 15.0
2016-Sep-28 19:26 098 15.0
2016-Sep-28 19:21 096 15.0
2016-Sep-28 19:16 097 15.0
2016-Sep-28 19:11 097 15.0
2016-Sep-28 19:06 096 14.4
2016-Sep-28 19:01 098 14.4
2016-Sep-28 18:56 097 14.4
2016-Sep-28 18:51 096 14.4
2016-Sep-28 18:46 097 14.4
2016-Sep-28 18:41 097 14.4
2016-Sep-28 18:36 097 14.4
2016-Sep-28 18:31 097 15.0
2016-Sep-28 18:26 097 15.0
2016-Sep-28 18:21 097 15.6
2016-Sep-28 18:16 098 15.6
2016-Sep-28 18:11 096 16.1
2016-Sep-28 18:06 097 16.7
2016-Sep-28 18:01 098 17.2
2016-Sep-28 17:56 097 17.8
2016-Sep-28 17:51 097 17.8
2016-Sep-28 17:46 097 18.3
2016-Sep-28 17:41 095 18.9
2016-Sep-28 17:36 097 18.9
2016-Sep-28 17:26 097 19.4
2016-Sep-28 17:21 097 19.4
2016-Sep-28 17:16 098 20.0
2016-Sep-28 17:11 097 20.0
2016-Sep-28 17:06 098 20.0
2016-Sep-28 17:01 098 20.0
2016-Sep-28 16:56 098 20.6
2016-Sep-28 16:51 104 20.6
2016-Sep-28 16:46 115 20.6
2016-Sep-28 16:36 115 20.6
2016-Sep-28 16:31 115 20.6
2016-Sep-28 16:26 115 20.6
2016-Sep-28 16:21 111 20.6
2016-Sep-28 16:16 103 21.1
2016-Sep-28 16:11 094 21.1
2016-Sep-28 16:06 111 21.1
2016-Sep-28 16:01 113 21.1
2016-Sep-28 15:56 128 21.1
2016-Sep-28 15:51 062 21.1
2016-Sep-28 15:46 122 21.1
2016-Sep-28 15:41 091 21.1
2016-Sep-28 15:36 144 21.1
2016-Sep-28 15:31 107 21.1
2016-Sep-28 15:26 110 21.1
2016-Sep-28 15:21 110 21.1
2016-Sep-28 15:16 080 21.1
2016-Sep-28 15:11 115 21.1
2016-Sep-28 15:06 106 21.1
2016-Sep-28 15:01 140 21.1
2016-Sep-28 14:56 090 21.1
2016-Sep-28 14:51 080 20.6
2016-Sep-28 14:46 102 20.6
2016-Sep-28 14:41 084 20.6
2016-Sep-28 14:36 101 20.6
2016-Sep-28 14:31 103 19.4
2016-Sep-28 14:26 135 19.4
2016-Sep-28 14:21 108 19.4
2016-Sep-28 14:16 131 18.9
2016-Sep-28 14:11 130 18.9
2016-Sep-28 14:06 106 18.9
2016-Sep-28 14:01 101 18.9
2016-Sep-28 13:56 081 19.4
2016-Sep-28 13:51 088 19.4
2016-Sep-28 13:46 094 19.4
2016-Sep-28 13:36 103 19.4
2016-Sep-28 13:31 122 18.9
2016-Sep-28 13:26 094 18.9
2016-Sep-28 13:21 124 18.9
2016-Sep-28 13:16 133 19.4
2016-Sep-28 13:11 110 19.4
2016-Sep-28 13:06 110 19.4
2016-Sep-28 13:01 079 19.4
2016-Sep-28 12:56 087 19.4
2016-Sep-28 12:51 080 19.4
2016-Sep-28 12:46 095 19.4
2016-Sep-28 12:41 101 19.4
2016-Sep-28 12:36 117 19.4
2016-Sep-28 12:31 061 20.0
2016-Sep-28 12:26 097 19.4
2016-Sep-28 12:21 070 19.4
2016-Sep-28 12:16 065 19.4
2016-Sep-28 12:11 065 19.4
2016-Sep-28 12:06 098 18.9
2016-Sep-28 12:01 133 18.9
2016-Sep-28 11:56 127 18.9
2016-Sep-28 11:51 098 19.4
2016-Sep-28 11:46 120 18.9
2016-Sep-28 11:41 116 18.9
2016-Sep-28 11:36 123 18.9
2016-Sep-28 11:31 106 18.9
2016-Sep-28 11:26 112 18.3
2016-Sep-28 11:21 115 18.3
2016-Sep-28 11:16 119 17.8
2016-Sep-28 11:11 125 17.8
2016-Sep-28 11:06 107 18.3
2016-Sep-28 11:01 119 18.3
2016-Sep-28 10:56 119 18.3
2016-Sep-28 10:51 118 17.8
2016-Sep-28 10:46 121 17.8
2016-Sep-28 10:41 113 17.8
2016-Sep-28 10:36 110 17.2
2016-Sep-28 10:31 106 16.7
2016-Sep-28 10:26 107 16.7
2016-Sep-28 10:21 119 16.1
2016-Sep-28 10:16 123 16.1
2016-Sep-28 10:11 117 16.1
2016-Sep-28 10:06 108 16.1
2016-Sep-28 10:01 098 16.1
2016-Sep-28 09:56 093 16.1
2016-Sep-28 09:51 085 16.1
2016-Sep-28 09:46 082 16.1
2016-Sep-28 09:41 080 16.1
2016-Sep-28 09:36 092 16.1
2016-Sep-28 09:31 094 16.1
2016-Sep-28 09:26 098 16.1
2016-Sep-28 09:21 097 16.1
2016-Sep-28 09:11 082 16.1
2016-Sep-28 09:06 084 16.1
2016-Sep-28 09:01 085 15.6
2016-Sep-28 08:56 085 15.6
2016-Sep-28 08:51 085 15.6
2016-Sep-28 08:46 085 15.6
2016-Sep-28 08:41 087 15.0
2016-Sep-28 08:36 094 15.0
2016-Sep-28 08:31 106 15.0
2016-Sep-28 08:26 108 14.4
2016-Sep-28 08:21 108 14.4
2016-Sep-28 08:16 108 13.9
2016-Sep-28 08:11 110 13.9
2016-Sep-28 08:06 108 13.3
2016-Sep-28 08:01 108 13.3
2016-Sep-28 07:56 108 13.3
2016-Sep-28 07:51 108 13.3
2016-Sep-28 07:46 108 12.8
2016-Sep-28 07:41 109 12.8
2016-Sep-28 07:36 108 12.8
2016-Sep-28 07:31 108 12.8
2016-Sep-28 07:26 108 12.8
2016-Sep-28 07:21 108 12.8
2016-Sep-28 07:16 108 12.8
2016-Sep-28 07:11 108 12.8
2016-Sep-28 07:06 109 12.8
2016-Sep-28 07:01 108 12.8
2016-Sep-28 06:56 108 12.8
2016-Sep-28 06:51 113 12.2
2016-Sep-28 06:46 088 12.2
2016-Sep-28 06:41 085 12.2
2016-Sep-28 06:36 039 12.2
2016-Sep-28 06:31 039 12.2
2016-Sep-28 06:26 040 12.2
2016-Sep-28 06:21 039 12.2
2016-Sep-28 06:16 038 12.2
2016-Sep-28 06:11 039 12.2
2016-Sep-28 06:06 040 12.2
2016-Sep-28 06:01 039 12.2
2016-Sep-28 05:56 039 12.2
2016-Sep-28 05:51 039 12.2
2016-Sep-28 05:46 039 12.2
2016-Sep-28 05:41 040 12.2
2016-Sep-28 05:36 039 12.2
2016-Sep-28 05:31 038 12.2
2016-Sep-28 05:26 039 12.2
2016-Sep-28 05:21 040 12.2
2016-Sep-28 05:16 040 12.2
2016-Sep-28 05:11 040 12.2
2016-Sep-28 05:06 040 12.2
2016-Sep-28 05:01 039 12.2
2016-Sep-28 04:56 039 12.2
2016-Sep-28 04:51 040 12.2
2016-Sep-28 04:46 039 12.2
2016-Sep-28 04:41 039 12.2
2016-Sep-28 04:36 040 12.2
2016-Sep-28 04:31 039 12.2
2016-Sep-28 04:26 040 12.2
2016-Sep-28 04:21 040 11.7
2016-Sep-28 04:16 040 11.7
2016-Sep-28 04:11 040 11.7
2016-Sep-28 04:06 040 11.7
2016-Sep-28 04:01 040 11.1
2016-Sep-28 03:56 039 11.1
2016-Sep-28 03:51 040 10.6
2016-Sep-28 03:46 040 10.6
2016-Sep-28 03:41 040 10.6
2016-Sep-28 03:36 039 10.6
2016-Sep-28 03:31 039 10.6
2016-Sep-28 03:26 040 11.1
2016-Sep-28 03:21 039 11.1
2016-Sep-28 03:16 040 11.1
2016-Sep-28 03:11 040 11.1
2016-Sep-28 03:06 040 11.7
2016-Sep-28 03:01 040 11.7
2016-Sep-28 02:56 040 11.7
2016-Sep-28 02:51 040 11.7
2016-Sep-28 02:46 038 11.7
2016-Sep-28 02:41 040 12.2
2016-Sep-28 02:36 040 12.2
2016-Sep-28 02:31 039 12.2
2016-Sep-28 02:26 040 12.2
2016-Sep-28 02:21 039 12.2
2016-Sep-28 02:16 039 12.2
2016-Sep-28 02:11 039 12.2
2016-Sep-28 02:06 039 12.2
2016-Sep-28 02:01 039 12.2
2016-Sep-28 01:56 040 12.2
2016-Sep-28 01:51 039 12.2
2016-Sep-28 01:46 040 12.2
2016-Sep-28 01:41 040 11.7
2016-Sep-28 01:36 040 11.7
2016-Sep-28 01:31 039 11.7
2016-Sep-28 01:26 040 11.7
2016-Sep-28 01:21 040 11.7
2016-Sep-28 01:16 038 11.7
2016-Sep-28 01:11 040 11.7
2016-Sep-28 01:06 040 11.7
2016-Sep-28 01:01 040 11.7
2016-Sep-28 00:56 039 12.2
2016-Sep-28 00:51 039 12.2
2016-Sep-28 00:46 039 12.2
2016-Sep-28 00:41 040 12.2
2016-Sep-28 00:36 039 12.8
2016-Sep-28 00:31 040 12.8
2016-Sep-28 00:26 039 12.8
2016-Sep-28 00:21 040 13.3
2016-Sep-28 00:16 040 13.3
2016-Sep-28 00:11 040 13.3
2016-Sep-28 00:06 039 13.3
2016-Sep-28 00:01 039 13.3
2016-Sep-27 23:56 041 13.9
2016-Sep-27 23:51 031 13.9
2016-Sep-27 23:46 031 13.9
2016-Sep-27 23:41 031 13.9
2016-Sep-27 23:36 031 13.9
2016-Sep-27 23:31 030 13.9
2016-Sep-27 23:26 040 13.9
2016-Sep-27 23:21 051 13.9
2016-Sep-27 23:16 050 13.9
2016-Sep-27 23:11 057 13.9
2016-Sep-27 23:06 062 13.9
2016-Sep-27 23:01 054 13.9
2016-Sep-27 22:56 056 13.9
2016-Sep-27 22:51 056 13.9
2016-Sep-27 22:46 040 14.4
2016-Sep-27 22:41 043 14.4
2016-Sep-27 22:36 050 14.4
2016-Sep-27 22:31 054 14.4
2016-Sep-27 22:26 050 14.4
2016-Sep-27 22:21 050 14.4
2016-Sep-27 22:16 054 14.4
2016-Sep-27 22:11 064 14.4
2016-Sep-27 22:06 065 13.9
2016-Sep-27 22:01 065 13.9
2016-Sep-27 21:56 072 13.9
2016-Sep-27 21:51 069 13.3
2016-Sep-27 21:46 069 13.3
2016-Sep-27 21:41 068 13.3
2016-Sep-27 21:36 068 13.3
2016-Sep-27 21:31 069 13.3
2016-Sep-27 21:26 067 12.8
2016-Sep-27 21:21 068 12.8
2016-Sep-27 21:11 068 12.8
2016-Sep-27 21:06 068 13.3
2016-Sep-27 21:01 068 13.3
2016-Sep-27 20:56 069 13.3
2016-Sep-27 20:51 068 13.3
2016-Sep-27 20:46 067 13.9
2016-Sep-27 20:41 068 13.9
2016-Sep-27 20:36 066 13.9
2016-Sep-27 20:21 065 14.4
2016-Sep-27 20:16 065 14.4
2016-Sep-27 20:11 063 14.4
2016-Sep-27 20:06 057 14.4
2016-Sep-27 20:01 055 14.4
2016-Sep-27 19:56 059 14.4
2016-Sep-27 19:36 056 15.0
2016-Sep-27 19:31 054 15.0
2016-Sep-27 19:26 056 15.0
2016-Sep-27 19:21 057 15.0
2016-Sep-27 19:16 055 15.6
2016-Sep-27 19:11 054 15.6
2016-Sep-27 19:06 050 15.6
2016-Sep-27 19:01 052 15.6
2016-Sep-27 18:56 052 15.6
2016-Sep-27 18:51 051 16.1
2016-Sep-27 18:46 046 16.1
2016-Sep-27 18:41 049 16.1
2016-Sep-27 18:36 048 16.1
2016-Sep-27 18:31 034 16.7
2016-Sep-27 18:26 037 16.7
2016-Sep-27 18:21 038 16.7
2016-Sep-27 18:16 041 16.7
2016-Sep-27 18:11 037 17.2
2016-Sep-27 18:06 040 17.2
2016-Sep-27 18:01 028 17.2
2016-Sep-27 17:56 026 17.8
2016-Sep-27 17:51 027 17.8
2016-Sep-27 17:46 027 18.3
2016-Sep-27 17:41 027 18.3
2016-Sep-27 17:36 026 18.3
2016-Sep-27 17:31 027 18.9
2016-Sep-27 17:26 027 18.9
2016-Sep-27 17:21 026 19.4
2016-Sep-27 17:16 027 19.4
2016-Sep-27 17:11 027 20.0
2016-Sep-27 17:06 027 20.0
2016-Sep-27 17:01 027 20.6
2016-Sep-27 16:56 026 20.6
2016-Sep-27 16:51 035 20.6
2016-Sep-27 16:46 034 21.1
2016-Sep-27 16:41 034 20.6
2016-Sep-27 16:36 027 21.1
2016-Sep-27 16:31 033 21.1
2016-Sep-27 16:26 036 21.1
2016-Sep-27 16:21 033 20.6
2016-Sep-27 16:16 009 20.6
2016-Sep-27 16:11 009 21.1
2016-Sep-27 16:06 021 21.1
2016-Sep-27 16:01 012 21.1
2016-Sep-27 15:56 017 21.1
2016-Sep-27 15:51 008 21.1
2016-Sep-27 15:46 360 21.1
2016-Sep-27 15:41 004 21.1
2016-Sep-27 15:36 355 21.1
2016-Sep-27 15:31 004 21.7
2016-Sep-27 15:26 358 21.7
2016-Sep-27 15:21 013 22.2
2016-Sep-27 15:16 027 21.7
2016-Sep-27 15:11 028 21.7
2016-Sep-27 15:06 012 21.7
2016-Sep-27 15:01 006 21.7
2016-Sep-27 14:56 006 21.7
2016-Sep-27 14:51 016 21.7
2016-Sep-27 14:46 358 21.7
2016-Sep-27 14:41 356 21.7
2016-Sep-27 14:36 012 21.7
2016-Sep-27 14:31 341 21.7
2016-Sep-27 14:26 007 21.7
2016-Sep-27 14:21 049 21.7
2016-Sep-27 14:16 072 21.7
2016-Sep-27 14:11 031 21.7
2016-Sep-27 14:06 067 21.7
2016-Sep-27 14:01 067 21.7
2016-Sep-27 13:56 342 21.7
2016-Sep-27 13:51 012 21.7
2016-Sep-27 13:46 003 21.7
2016-Sep-27 13:41 011 21.7
2016-Sep-27 13:36 051 21.7
2016-Sep-27 13:31 088 21.7
2016-Sep-27 13:26 088 21.7
2016-Sep-27 13:21 060 21.1
2016-Sep-27 13:16 051 21.1
2016-Sep-27 13:11 029 21.1
2016-Sep-27 13:06 029 21.1
2016-Sep-27 13:01 029 21.1
2016-Sep-27 12:56 029 21.1
2016-Sep-27 12:51 029 20.6
2016-Sep-27 12:46 029 20.6
2016-Sep-27 12:41 029 20.6
2016-Sep-27 12:36 030 20.6
2016-Sep-27 12:31 030 20.6
2016-Sep-27 12:26 030 21.1
2016-Sep-27 12:21 031 21.1
2016-Sep-27 12:16 031 20.6
2016-Sep-27 12:11 031 20.6
2016-Sep-27 12:06 032 20.6
2016-Sep-27 12:01 031 20.6
2016-Sep-27 11:56 031 20.0
2016-Sep-27 11:51 042 20.6
2016-Sep-27 11:46 042 20.0
2016-Sep-27 11:41 061 20.6
2016-Sep-27 11:36 065 20.6
2016-Sep-27 11:31 071 20.0
2016-Sep-27 11:26 051 20.0
2016-Sep-27 11:21 058 20.0
2016-Sep-27 11:16 050 19.4
2016-Sep-27 11:11 050 19.4
2016-Sep-27 11:06 052 19.4
2016-Sep-27 11:01 055 19.4